30.06.2024;16:00;12
30.06.2024;15:00;11
30.06.2024;14:00;10
30.06.2024;13:00;10
30.06.2024;12:00;17
30.06.2024;11:00;23
30.06.2024;10:00;38
30.06.2024;09:00;39
30.06.2024;08:00;30
30.06.2024;07:00;26
30.06.2024;06:00;24
30.06.2024;05:00;24
30.06.2024;04:00;27
30.06.2024;03:00;29
30.06.2024;02:00;31
30.06.2024;01:00;26
29.06.2024;24:00;22
29.06.2024;23:00;22
29.06.2024;22:00;29
29.06.2024;21:00;23
29.06.2024;20:00;25
29.06.2024;19:00;25
29.06.2024;18:00;23
29.06.2024;17:00;20
29.06.2024;16:00;18
29.06.2024;15:00;17
29.06.2024;14:00;17
29.06.2024;13:00;15
29.06.2024;12:00;13
29.06.2024;11:00;14
29.06.2024;10:00;18
29.06.2024;09:00;17
29.06.2024;08:00;14
29.06.2024;07:00;16
29.06.2024;06:00;19
29.06.2024;05:00;18
29.06.2024;04:00;19
29.06.2024;03:00;22
29.06.2024;02:00;21
29.06.2024;01:00;16
28.06.2024;24:00;12
28.06.2024;23:00;12
28.06.2024;22:00;13
28.06.2024;21:00;13
28.06.2024;20:00;12
28.06.2024;19:00;12
28.06.2024;18:00;11
28.06.2024;17:00;10
28.06.2024;16:00;10
28.06.2024;15:00;14
28.06.2024;14:00;16
28.06.2024;13:00;22
28.06.2024;12:00;21
28.06.2024;11:00;21
28.06.2024;10:00;16
28.06.2024;09:00;12
28.06.2024;08:00;14
28.06.2024;07:00;17
28.06.2024;06:00;17
28.06.2024;05:00;18
28.06.2024;04:00;17
28.06.2024;03:00;12
28.06.2024;02:00;10
28.06.2024;01:00;10
27.06.2024;24:00;12
27.06.2024;23:00;12
27.06.2024;22:00;12
27.06.2024;21:00;10
27.06.2024;20:00;11
27.06.2024;19:00;12
27.06.2024;18:00;13
27.06.2024;17:00;11
27.06.2024;16:00;12
27.06.2024;15:00;13
27.06.2024;14:00;17
27.06.2024;13:00;18
27.06.2024;12:00;27
27.06.2024;11:00;29
27.06.2024;10:00;40
27.06.2024;09:00;37
27.06.2024;08:00;33
27.06.2024;07:00;24
27.06.2024;06:00;21
27.06.2024;05:00;24
27.06.2024;04:00;23
27.06.2024;03:00;24
27.06.2024;02:00;24
27.06.2024;01:00;24
26.06.2024;24:00;24
26.06.2024;23:00;23
26.06.2024;22:00;18
26.06.2024;21:00;16
26.06.2024;20:00;14
26.06.2024;19:00;15
26.06.2024;18:00;20
26.06.2024;17:00;17
26.06.2024;16:00;13
26.06.2024;15:00;13
26.06.2024;14:00;13
26.06.2024;13:00;12
26.06.2024;12:00;10
26.06.2024;11:00;11
26.06.2024;10:00;11
26.06.2024;09:00;16
26.06.2024;08:00;21
26.06.2024;07:00;19
26.06.2024;06:00;19
26.06.2024;05:00;19
26.06.2024;04:00;19
26.06.2024;03:00;19
26.06.2024;02:00;21
26.06.2024;01:00;22
25.06.2024;24:00;23
25.06.2024;23:00;23
25.06.2024;22:00;24
25.06.2024;21:00;21
25.06.2024;20:00;19
25.06.2024;19:00;18
25.06.2024;18:00;18
25.06.2024;17:00;17
25.06.2024;16:00;17
25.06.2024;15:00;17
25.06.2024;14:00;16
25.06.2024;13:00;14
25.06.2024;12:00;12
25.06.2024;11:00;10
25.06.2024;10:00;9
25.06.2024;09:00;11
25.06.2024;08:00;14
25.06.2024;07:00;16
25.06.2024;06:00;17
25.06.2024;05:00;17
25.06.2024;04:00;16
25.06.2024;03:00;17
25.06.2024;02:00;17
25.06.2024;01:00;15
